FLX258C MTPP-TNCC

Flight info

Callsign FLX258C
Flight time 1h 4m
Altitude 39000
Route TOVOL1N TOVOL DCT DARKE UA315 VESKA VESKA1B
Aircraft A339/H-SADE1E2E3GHIJ3J5M1P2RWXY/LB2D1

Departure

Time 2026-05-08 22:31
Airport Toussaint Louverture International Airport (MTPP)

Arrival

Time 2026-05-08 23:35
Airport Hato International Airport (TNCC)
Time Latitude Longitude Altitude Speed Heading
2026-05-08 22:14 18.57630 -72.29434 189 ft 0 kts 177°
2026-05-08 22:19 18.57631 -72.29434 189 ft 0 kts 177°
2026-05-08 22:20 18.57645 -72.29435 189 ft 2 kts 177°
2026-05-08 22:20 18.57660 -72.29436 189 ft 2 kts 190°
2026-05-08 22:20 18.57674 -72.29430 189 ft 2 kts 221°
2026-05-08 22:20 18.57683 -72.29418 189 ft 2 kts 246°
2026-05-08 22:21 18.57687 -72.29406 189 ft 0 kts 267°
2026-05-08 22:21 18.57687 -72.29401 189 ft 0 kts 268°
2026-05-08 22:25 18.57687 -72.29404 189 ft 2 kts 268°
2026-05-08 22:25 18.57694 -72.29442 189 ft 7 kts 309°
2026-05-08 22:25 18.57761 -72.29457 188 ft 13 kts 354°
2026-05-08 22:26 18.57874 -72.29467 187 ft 17 kts 355°
2026-05-08 22:26 18.57982 -72.29459 186 ft 6 kts 41°
2026-05-08 22:26 18.57998 -72.29395 187 ft 11 kts 85°
2026-05-08 22:26 18.58005 -72.29291 188 ft 16 kts 86°
2026-05-08 22:27 18.58012 -72.29155 190 ft 20 kts 87°
2026-05-08 22:27 18.58019 -72.28989 192 ft 23 kts 86°
2026-05-08 22:27 18.58032 -72.28805 196 ft 26 kts 84°
2026-05-08 22:27 18.58052 -72.28606 200 ft 27 kts 90°
2026-05-08 22:28 18.58048 -72.28396 204 ft 29 kts 87°
2026-05-08 22:28 18.58059 -72.28191 209 ft 26 kts 86°
2026-05-08 22:28 18.58068 -72.28005 212 ft 24 kts 86°
2026-05-08 22:28 18.58060 -72.27879 214 ft 7 kts 128°
2026-05-08 22:29 18.58042 -72.27835 215 ft 3 kts 68°
2026-05-08 22:29 18.58075 -72.27824 215 ft 2 kts 324°
2026-05-08 22:29 18.58077 -72.27838 215 ft 0 kts 265°
2026-05-08 22:29 18.58077 -72.27849 215 ft 4 kts 266°
2026-05-08 22:30 18.58066 -72.28074 211 ft 64 kts 267°
2026-05-08 22:30 18.58033 -72.28773 197 ft 124 kts 266°
2026-05-08 22:30 18.57978 -72.29861 249 ft 166 kts 270°
2026-05-08 22:30 18.57914 -72.31084 722 ft 171 kts 270°
2026-05-08 22:31 18.57855 -72.32362 1302 ft 175 kts 270°
2026-05-08 22:31 18.57802 -72.33652 1779 ft 181 kts 270°
2026-05-08 22:31 18.57753 -72.35002 2212 ft 190 kts 270°
2026-05-08 22:31 18.57705 -72.36445 2532 ft 207 kts 270°
2026-05-08 22:32 18.57604 -72.37998 2936 ft 220 kts 258°
2026-05-08 22:32 18.56746 -72.39365 3363 ft 234 kts 213°
2026-05-08 22:32 18.55220 -72.39861 4042 ft 231 kts 175°
2026-05-08 22:32 18.53744 -72.39354 4658 ft 228 kts 143°
2026-05-08 22:33 18.52468 -72.38359 5228 ft 232 kts 141°
2026-05-08 22:33 18.51148 -72.37342 5854 ft 235 kts 142°
2026-05-08 22:33 18.49834 -72.36334 6480 ft 236 kts 141°
2026-05-08 22:33 18.48499 -72.35304 7122 ft 238 kts 142°
2026-05-08 22:34 18.47170 -72.34285 7714 ft 240 kts 141°
2026-05-08 22:34 18.45817 -72.33241 8294 ft 242 kts 141°
2026-05-08 22:34 18.44456 -72.32192 8815 ft 249 kts 141°
2026-05-08 22:34 18.43009 -72.31073 9106 ft 265 kts 141°
2026-05-08 22:35 18.41463 -72.29878 9405 ft 283 kts 141°
2026-05-08 22:35 18.39858 -72.28641 9854 ft 293 kts 141°
2026-05-08 22:35 18.38185 -72.27356 10477 ft 297 kts 141°
2026-05-08 22:35 18.36470 -72.26036 10833 ft 313 kts 141°
2026-05-08 22:36 18.34680 -72.24654 11113 ft 329 kts 141°
2026-05-08 22:36 18.32773 -72.23183 11385 ft 345 kts 141°
2026-05-08 22:36 18.30784 -72.21652 11643 ft 361 kts 141°
2026-05-08 22:36 18.28731 -72.20073 11896 ft 376 kts 141°
2026-05-08 22:37 18.26568 -72.18407 12228 ft 388 kts 141°
2026-05-08 22:37 18.24390 -72.16735 12783 ft 392 kts 141°
2026-05-08 22:37 18.22174 -72.15035 13372 ft 394 kts 141°
2026-05-08 22:37 18.19953 -72.13327 13917 ft 398 kts 141°
2026-05-08 22:38 18.17723 -72.11612 14411 ft 402 kts 140°
2026-05-08 22:38 18.15449 -72.09866 14929 ft 406 kts 140°
2026-05-08 22:38 18.13127 -72.08158 15424 ft 412 kts 143°
2026-05-08 22:38 18.10679 -72.06548 15937 ft 416 kts 145°
2026-05-08 22:39 18.08203 -72.04958 16451 ft 420 kts 145°
2026-05-08 22:39 18.05678 -72.03343 16955 ft 423 kts 145°
2026-05-08 22:39 18.03174 -72.01743 17428 ft 427 kts 145°
2026-05-08 22:39 18.00612 -72.00104 17921 ft 430 kts 145°
2026-05-08 22:40 17.98047 -71.98462 18422 ft 433 kts 145°
2026-05-08 22:40 17.95455 -71.96804 18904 ft 437 kts 145°
2026-05-08 22:40 17.92854 -71.95141 19378 ft 440 kts 145°
2026-05-08 22:40 17.90242 -71.93483 19823 ft 443 kts 146°
2026-05-08 22:41 17.87584 -71.91812 20261 ft 447 kts 146°
2026-05-08 22:41 17.84888 -71.90121 20693 ft 450 kts 146°
2026-05-08 22:41 17.82190 -71.88429 21113 ft 453 kts 146°
2026-05-08 22:41 17.79480 -71.86729 21524 ft 456 kts 146°
2026-05-08 22:42 17.76749 -71.85014 21921 ft 458 kts 146°
2026-05-08 22:42 17.74020 -71.83300 22304 ft 461 kts 146°
2026-05-08 22:42 17.71249 -71.81562 22708 ft 464 kts 146°
2026-05-08 22:42 17.68481 -71.79825 23115 ft 467 kts 146°
2026-05-08 22:43 17.65666 -71.78058 23519 ft 469 kts 146°
2026-05-08 22:43 17.62840 -71.76283 23914 ft 472 kts 146°
2026-05-08 22:43 17.60025 -71.74517 24308 ft 474 kts 146°
2026-05-08 22:43 17.57152 -71.72716 24703 ft 477 kts 146°
2026-05-08 22:44 17.54311 -71.70937 25077 ft 479 kts 146°
2026-05-08 22:44 17.51430 -71.69133 25449 ft 482 kts 146°
2026-05-08 22:44 17.48514 -71.67306 25823 ft 485 kts 146°
2026-05-08 22:44 17.45622 -71.65494 26181 ft 487 kts 146°
2026-05-08 22:45 17.42710 -71.63670 26533 ft 490 kts 146°
2026-05-08 22:45 17.39788 -71.61840 26882 ft 492 kts 147°
2026-05-08 22:45 17.36843 -71.59995 27225 ft 494 kts 146°
2026-05-08 22:45 17.33860 -71.58128 27559 ft 497 kts 147°
2026-05-08 22:46 17.30903 -71.56277 27896 ft 499 kts 147°
2026-05-08 22:46 17.27894 -71.54394 28234 ft 501 kts 147°
2026-05-08 22:46 17.24876 -71.52505 28558 ft 504 kts 147°
2026-05-08 22:46 17.21891 -71.50638 28862 ft 506 kts 147°
2026-05-08 22:47 17.18854 -71.48740 29236 ft 506 kts 147°
2026-05-08 22:47 17.15819 -71.46845 29696 ft 505 kts 147°
2026-05-08 22:47 17.12800 -71.44961 30153 ft 503 kts 147°
2026-05-08 22:47 17.09834 -71.43109 30572 ft 502 kts 147°
2026-05-08 22:48 17.06817 -71.41226 30989 ft 501 kts 147°
2026-05-08 22:48 17.03832 -71.39362 31399 ft 501 kts 147°
2026-05-08 22:48 17.00835 -71.37491 31824 ft 499 kts 147°
2026-05-08 22:48 16.97851 -71.35628 32248 ft 498 kts 148°
2026-05-08 22:49 16.94885 -71.33778 32653 ft 497 kts 148°
2026-05-08 22:49 16.88965 -71.30090 33564 ft 495 kts 148°
2026-05-08 22:49 16.85999 -71.28249 34037 ft 493 kts 148°
2026-05-08 22:50 16.83048 -71.26417 34510 ft 491 kts 148°
2026-05-08 22:50 16.80138 -71.24609 34964 ft 489 kts 148°
2026-05-08 22:50 16.77219 -71.22797 35392 ft 488 kts 148°
2026-05-08 22:50 16.74294 -71.20981 35731 ft 488 kts 148°
2026-05-08 22:51 16.71368 -71.19164 35983 ft 489 kts 148°
2026-05-08 22:51 16.68462 -71.17361 36216 ft 491 kts 148°
2026-05-08 22:51 16.65506 -71.15525 36466 ft 492 kts 148°
2026-05-08 22:51 16.62559 -71.13696 36713 ft 493 kts 148°
2026-05-08 22:52 16.59623 -71.11875 36915 ft 494 kts 148°
2026-05-08 22:52 16.56662 -71.10039 36936 ft 495 kts 148°
2026-05-08 22:52 16.50718 -71.06355 36940 ft 495 kts 148°
2026-05-08 22:53 16.44816 -71.02701 36941 ft 495 kts 148°
2026-05-08 22:53 16.38876 -70.99025 36941 ft 495 kts 148°
2026-05-08 22:54 16.32951 -70.95362 36941 ft 495 kts 148°
2026-05-08 22:54 16.27021 -70.91698 36942 ft 495 kts 148°
2026-05-08 22:55 16.21126 -70.88057 36942 ft 494 kts 148°
2026-05-08 22:55 16.15186 -70.84388 36942 ft 494 kts 148°
2026-05-08 22:56 16.09272 -70.80737 36942 ft 495 kts 148°
2026-05-08 22:56 16.03337 -70.77082 36942 ft 495 kts 149°
2026-05-08 22:57 15.97230 -70.73810 36941 ft 496 kts 155°
2026-05-08 22:57 15.90868 -70.70979 36942 ft 496 kts 156°
2026-05-08 22:58 15.84530 -70.68192 36939 ft 496 kts 156°
2026-05-08 22:58 15.78180 -70.65394 36938 ft 496 kts 156°
2026-05-08 22:59 15.71786 -70.62575 36936 ft 496 kts 156°
2026-05-08 22:59 15.65426 -70.59773 36938 ft 497 kts 156°
2026-05-08 23:00 15.59061 -70.56970 36937 ft 498 kts 156°
2026-05-08 23:00 15.52687 -70.54165 36938 ft 498 kts 156°
2026-05-08 23:01 15.46286 -70.51350 36938 ft 498 kts 156°
2026-05-08 23:01 15.39920 -70.48552 36933 ft 497 kts 156°
2026-05-08 23:02 15.33547 -70.45754 36933 ft 497 kts 156°
2026-05-08 23:02 15.27138 -70.42941 36930 ft 498 kts 156°
2026-05-08 23:03 15.20774 -70.40148 36931 ft 498 kts 156°
2026-05-08 23:03 15.14385 -70.37347 36925 ft 499 kts 156°
2026-05-08 23:04 15.07951 -70.34529 36926 ft 499 kts 156°
2026-05-08 23:04 15.01573 -70.31738 36922 ft 499 kts 156°
2026-05-08 23:05 14.95154 -70.28931 36922 ft 498 kts 156°
2026-05-08 23:05 14.88760 -70.26135 36923 ft 499 kts 156°
2026-05-08 23:06 14.82386 -70.23349 36930 ft 499 kts 156°
2026-05-08 23:06 14.75983 -70.20553 36931 ft 499 kts 156°
2026-05-08 23:07 14.69542 -70.17742 36929 ft 499 kts 156°
2026-05-08 23:07 14.63176 -70.14967 36932 ft 499 kts 156°
2026-05-08 23:08 14.56769 -70.12174 36925 ft 499 kts 156°
2026-05-08 23:08 14.50335 -70.09373 36919 ft 500 kts 156°
2026-05-08 23:09 14.43947 -70.06593 36917 ft 500 kts 156°
2026-05-08 23:09 14.37525 -70.03799 36923 ft 500 kts 156°
2026-05-08 23:10 14.31081 -70.00996 36924 ft 500 kts 156°
2026-05-08 23:10 14.24707 -69.98228 36348 ft 494 kts 156°
2026-05-08 23:11 14.21561 -69.96862 35534 ft 496 kts 156°
2026-05-08 23:11 14.18361 -69.95473 34592 ft 499 kts 156°
2026-05-08 23:11 14.15145 -69.94077 33651 ft 502 kts 156°
2026-05-08 23:11 14.11921 -69.92679 32708 ft 505 kts 156°
2026-05-08 23:12 14.08646 -69.91260 31852 ft 508 kts 156°
2026-05-08 23:12 14.05403 -69.89857 30973 ft 512 kts 155°
2026-05-08 23:12 14.02094 -69.88425 30039 ft 516 kts 155°
2026-05-08 23:12 13.98770 -69.86987 29085 ft 520 kts 155°
2026-05-08 23:13 13.95449 -69.85548 28336 ft 518 kts 155°
2026-05-08 23:13 13.92162 -69.84125 27898 ft 510 kts 155°
2026-05-08 23:13 13.88887 -69.82707 27435 ft 503 kts 154°
2026-05-08 23:13 13.85638 -69.81300 26919 ft 497 kts 154°
2026-05-08 23:14 13.82463 -69.79927 26389 ft 493 kts 154°
2026-05-08 23:14 13.79325 -69.78569 25876 ft 487 kts 154°
2026-05-08 23:14 13.76203 -69.77219 25363 ft 482 kts 154°
2026-05-08 23:14 13.73101 -69.75879 24841 ft 478 kts 154°
2026-05-08 23:15 13.70051 -69.74562 24336 ft 473 kts 154°
2026-05-08 23:15 13.67010 -69.73249 23819 ft 468 kts 153°
2026-05-08 23:15 13.64034 -69.71963 23320 ft 463 kts 153°
2026-05-08 23:15 13.61093 -69.70693 22819 ft 459 kts 153°
2026-05-08 23:16 13.58146 -69.69421 22309 ft 455 kts 153°
2026-05-08 23:16 13.55246 -69.68167 21833 ft 450 kts 153°
2026-05-08 23:16 13.52337 -69.66908 21331 ft 447 kts 153°
2026-05-08 23:16 13.49485 -69.65675 20833 ft 443 kts 153°
2026-05-08 23:17 13.46647 -69.64449 20336 ft 439 kts 153°
2026-05-08 23:17 13.43871 -69.63251 19849 ft 436 kts 153°
2026-05-08 23:17 13.41075 -69.62045 19355 ft 432 kts 154°
2026-05-08 23:17 13.38316 -69.60854 18867 ft 429 kts 154°
2026-05-08 23:18 13.35576 -69.59674 18375 ft 426 kts 154°
2026-05-08 23:18 13.32852 -69.58501 17887 ft 422 kts 154°
2026-05-08 23:18 13.30129 -69.57328 17409 ft 419 kts 154°
2026-05-08 23:18 13.27445 -69.56173 16934 ft 416 kts 154°
2026-05-08 23:19 13.24806 -69.55038 16440 ft 413 kts 154°
2026-05-08 23:19 13.22153 -69.53897 15928 ft 411 kts 154°
2026-05-08 23:19 13.19510 -69.52761 15425 ft 409 kts 154°
2026-05-08 23:19 13.16898 -69.51636 14930 ft 407 kts 154°
2026-05-08 23:20 13.14290 -69.50515 14443 ft 405 kts 154°
2026-05-08 23:20 13.11684 -69.49395 13955 ft 402 kts 154°
2026-05-08 23:20 13.09106 -69.48286 13466 ft 400 kts 155°
2026-05-08 23:20 13.06555 -69.47189 12984 ft 398 kts 155°
2026-05-08 23:21 13.03979 -69.46082 12510 ft 395 kts 155°
2026-05-08 23:21 13.01441 -69.44992 12049 ft 393 kts 155°
2026-05-08 23:21 12.98947 -69.43922 11598 ft 390 kts 155°
2026-05-08 23:21 12.96431 -69.42841 11157 ft 386 kts 155°
2026-05-08 23:22 12.93983 -69.41791 10833 ft 379 kts 155°
2026-05-08 23:22 12.91561 -69.40752 10510 ft 373 kts 155°
2026-05-08 23:22 12.89198 -69.39738 10237 ft 366 kts 155°
2026-05-08 23:22 12.86852 -69.38731 10095 ft 354 kts 155°
2026-05-08 23:23 12.84638 -69.37781 10035 ft 342 kts 155°
2026-05-08 23:23 12.82457 -69.36846 9980 ft 329 kts 154°
2026-05-08 23:23 12.80380 -69.35955 9935 ft 317 kts 154°
2026-05-08 23:23 12.78354 -69.35087 9748 ft 311 kts 154°
2026-05-08 23:24 12.76367 -69.34234 9525 ft 307 kts 155°
2026-05-08 23:24 12.74395 -69.33392 9308 ft 303 kts 155°
2026-05-08 23:24 12.72455 -69.32564 9095 ft 299 kts 155°
2026-05-08 23:24 12.70545 -69.31747 8889 ft 295 kts 155°
2026-05-08 23:25 12.68643 -69.30934 8686 ft 291 kts 154°
2026-05-08 23:25 12.66783 -69.30138 8478 ft 288 kts 154°
2026-05-08 23:25 12.64946 -69.29353 8226 ft 286 kts 154°
2026-05-08 23:25 12.63097 -69.28561 7973 ft 285 kts 154°
2026-05-08 23:26 12.61276 -69.27783 7726 ft 283 kts 154°
2026-05-08 23:26 12.59472 -69.27012 7479 ft 282 kts 154°
2026-05-08 23:26 12.57643 -69.26230 7228 ft 280 kts 154°
2026-05-08 23:26 12.55849 -69.25463 6978 ft 279 kts 154°
2026-05-08 23:27 12.54050 -69.24694 6734 ft 278 kts 154°
2026-05-08 23:27 12.52277 -69.23936 6489 ft 276 kts 154°
2026-05-08 23:27 12.50492 -69.23172 6235 ft 275 kts 154°
2026-05-08 23:27 12.48723 -69.22417 5991 ft 274 kts 154°
2026-05-08 23:28 12.46967 -69.21668 5747 ft 273 kts 154°
2026-05-08 23:28 12.45220 -69.20923 5508 ft 272 kts 154°
2026-05-08 23:28 12.43476 -69.20180 5267 ft 270 kts 154°
2026-05-08 23:28 12.41738 -69.19436 5032 ft 269 kts 153°
2026-05-08 23:29 12.39991 -69.18690 4793 ft 268 kts 153°
2026-05-08 23:29 12.38285 -69.17963 4339 ft 266 kts 153°
2026-05-08 23:29 12.36583 -69.17238 3887 ft 261 kts 153°
2026-05-08 23:29 12.34925 -69.16531 3390 ft 258 kts 153°
2026-05-08 23:30 12.33273 -69.15817 3104 ft 254 kts 150°
2026-05-08 23:30 12.31684 -69.14996 2815 ft 255 kts 147°
2026-05-08 23:30 12.30127 -69.14136 2657 ft 250 kts 146°
2026-05-08 23:30 12.28613 -69.13300 2658 ft 240 kts 146°
2026-05-08 23:31 12.27187 -69.12509 2647 ft 230 kts 146°
2026-05-08 23:31 12.25806 -69.11747 2624 ft 219 kts 146°
2026-05-08 23:31 12.24494 -69.11022 2593 ft 208 kts 145°
2026-05-08 23:31 12.23247 -69.10332 2567 ft 197 kts 145°
2026-05-08 23:32 12.22128 -69.09602 2476 ft 184 kts 124°
2026-05-08 23:32 12.21544 -69.08501 2231 ft 171 kts 104°
2026-05-08 23:32 12.21264 -69.07365 2018 ft 158 kts 98°
2026-05-08 23:32 12.21058 -69.06291 1808 ft 149 kts 97°
2026-05-08 23:33 12.20858 -69.05271 1628 ft 143 kts 97°
2026-05-08 23:33 12.20659 -69.04313 1442 ft 136 kts 98°
2026-05-08 23:33 12.20459 -69.03363 1281 ft 136 kts 98°
2026-05-08 23:33 12.20256 -69.02412 1115 ft 136 kts 99°
2026-05-08 23:34 12.20054 -69.01461 950 ft 136 kts 99°
2026-05-08 23:34 12.19852 -69.00511 782 ft 135 kts 99°
2026-05-08 23:34 12.19650 -68.99552 597 ft 135 kts 99°
2026-05-08 23:34 12.19455 -68.98608 431 ft 134 kts 99°
2026-05-08 23:35 12.19252 -68.97680 251 ft 133 kts 101°
2026-05-08 23:35 12.19055 -68.96754 87 ft 132 kts 99°
2026-05-08 23:35 12.18883 -68.95927 51 ft 85 kts 102°
2026-05-08 23:35 12.18820 -68.95625 51 ft 13 kts 101°
2026-05-08 23:36 12.18800 -68.95531 51 ft 13 kts 103°
2026-05-08 23:36 12.18777 -68.95435 51 ft 12 kts 112°
2026-05-08 23:36 12.18723 -68.95403 51 ft 8 kts 175°
2026-05-08 23:36 12.18663 -68.95415 51 ft 9 kts 197°
2026-05-08 23:37 12.18616 -68.95443 51 ft 6 kts 252°
2026-05-08 23:37 12.18616 -68.95499 51 ft 8 kts 277°
2026-05-08 23:37 12.18624 -68.95567 51 ft 10 kts 277°
2026-05-08 23:37 12.18623 -68.95607 51 ft 2 kts 218°
2026-05-08 23:38 12.18592 -68.95617 51 ft 5 kts 195°
2026-05-08 23:38 12.18554 -68.95627 51 ft 4 kts 191°
2026-05-08 23:38 12.18552 -68.95628 51 ft 0 kts 191°